FW6802 Weather Reports


Display with metric or nautical units.
time (UTC)temp
F
wind
direction
speed
MPH
gust
MPH
rain 1hr
in
rain 24hr
in
rain mn
in
humidity
%
barometer
mb
20260902093458 76 192 0.0 12.0 0.00 0.00 0.00 87 1014.7
20260902092957 76 192 0.0 12.0 0.00 0.00 0.00 87 1014.3
20260902092457 76 192 1.0 12.0 0.00 0.00 0.00 87 1014.4
20260902091957 76 192 0.0 12.0 0.00 0.00 0.00 87 1014.5
20260902091457 77 192 0.0 12.0 0.00 0.00 0.00 87 1014.5
20260902090957 77 192 1.0 12.0 0.00 0.00 0.00 87 1014.4
20260902090456 77 192 0.0 12.0 0.00 0.00 0.00 87 1014.2
20260902085441 77 192 0.0 12.0 0.00 0.00 0.00 87 1014.5
20260902084424 77 192 1.0 12.0 0.00 0.00 0.00 87 1014.2
20260902083924 77 191 1.0 12.0 0.00 0.00 0.00 87 1014.3
20260902083423 77 191 1.0 12.0 0.00 0.00 0.00 87 1014.3
20260902082923 77 190 0.0 12.0 0.00 0.00 0.00 87 1014.3
20260902082422 77 190 1.0 12.0 0.00 0.00 0.00 87 1014.4
20260902081921 77 190 1.0 12.0 0.00 0.00 0.00 87 1014.2
20260902081420 77 190 0.0 12.0 0.00 0.00 0.00 87 1014.2
20260902080405 77 190 0.0 12.0 0.00 0.00 0.00 87 1014.1
20260902075905 77 190 0.0 12.0 0.00 0.00 0.00 86 1013.9
20260902075405 77 190 0.0 12.0 0.00 0.00 0.00 86 1014.2
20260902074905 77 190 0.0 12.0 0.00 0.00 0.00 86 1014.1
20260902074405 78 190 0.0 12.0 0.00 0.00 0.00 86 1014.1
20260902073905 78 190 0.0 12.0 0.00 0.00 0.00 86 1014.0
20260902073405 78 190 0.0 12.0 0.00 0.00 0.00 86 1014.1
20260902071319 78 190 0.0 12.0 0.00 0.00 0.00 86 1014.2
20260902070819 78 190 0.0 12.0 0.00 0.00 0.00 86 1014.2
20260902070318 78 189 0.0 12.0 0.00 0.00 0.00 86 1014.3
20260902065818 78 189 0.0 12.0 0.00 0.00 0.00 86 1014.1
20260902065317 78 189 0.0 12.0 0.00 0.00 0.00 86 1014.1
20260902064301 78 189 0.0 12.0 0.00 0.00 0.00 86 1014.1
20260902063800 78 189 0.0 12.0 0.00 0.00 0.00 85 1014.1
20260902063259 79 189 0.0 12.0 0.00 0.00 0.00 85 1014.2
20260902062758 79 189 0.0 12.0 0.00 0.00 0.00 85 1014.1
20260902062257 79 189 0.0 12.0 0.00 0.00 0.00 85 1014.3
20260902061756 79 189 0.0 12.0 0.00 0.00 0.00 85 1014.4
20260902061256 79 189 0.0 12.0 0.00 0.00 0.00 85 1014.0
20260902055724 79 189 0.0 12.0 0.00 0.00 0.00 85 1014.4
20260902055223 79 189 0.0 12.0 0.00 0.00 0.00 85 1014.5
20260902054207 79 189 1.0 12.0 0.00 0.00 0.00 85 1014.2
20260902053707 79 189 1.0 12.0 0.00 0.00 0.00 85 1014.1
20260902053206 80 189 0.0 12.0 0.00 0.00 0.00 85 1014.1
20260902052706 80 189 0.0 12.0 0.00 0.00 0.00 85 1014.3
20260902052206 80 189 0.0 12.0 0.00 0.00 0.00 84 1014.2
20260902051706 80 189 0.0 12.0 0.00 0.00 0.00 84 1014.0
20260902051206 80 189 0.0 12.0 0.00 0.00 0.00 84 1014.0
20260902050705 80 189 0.0 12.0 0.00 0.00 0.00 84 1014.2
20260902050205 80 189 0.0 12.0 0.00 0.00 0.00 84 1014.2
20260902045705 80 189 0.0 12.0 0.00 0.00 0.00 84 1014.1
20260902045204 80 189 0.0 12.0 0.00 0.00 0.00 84 1014.3
20260902044147 81 189 1.0 12.0 0.00 0.00 0.00 83 1014.1
20260902043131 81 186 1.0 12.0 0.00 0.00 0.00 83 1014.3
20260902042631 81 186 1.0 12.0 0.00 0.00 0.00 83 1014.1
20260902041058 81 181 1.0 12.0 0.00 0.00 0.00 82 1014.3
20260902040558 82 180 1.0 12.0 0.00 0.00 0.00 82 1014.2
20260902040058 82 178 0.0 12.0 0.00 0.00 0.00 82 1014.1
20260902035558 82 177 1.0 12.0 0.00 0.00 0.00 82 1014.2
20260902034542 82 180 1.0 12.0 0.00 0.00 0.00 81 1014.4
20260902034041 82 183 1.0 12.0 0.00 0.00 0.00 81 1014.2
20260902033025 83 180 1.0 12.0 0.00 0.00 0.00 81 1014.2
20260902032525 83 184 2.0 12.0 0.00 0.00 0.00 81 1014.3
20260902032024 83 184 1.0 12.0 0.00 0.00 0.00 81 1014.2
20260902031524 83 182 1.0 12.0 0.00 0.00 0.00 80 1014.3
20260902031024 83 177 1.0 12.0 0.00 0.00 0.00 80 1014.3
20260902030524 83 177 1.0 12.0 0.00 0.00 0.00 80 1014.2
20260902030024 83 178 1.0 12.0 0.00 0.00 0.00 80 1014.1
20260902025524 83 189 1.0 12.0 0.00 0.00 0.00 79 1014.3
20260902025024 84 188 2.0 12.0 0.00 0.00 0.00 79 1014.4
20260902024524 84 184 2.0 12.0 0.00 0.00 0.00 79 1014.6
20260902023509 84 174 1.0 12.0 0.00 0.00 0.00 79 1014.2
20260902023009 84 177 1.0 12.0 0.00 0.00 0.00 79 1014.3
20260902022509 84 179 0.0 12.0 0.00 0.00 0.00 79 1014.2
20260902022009 84 177 1.0 12.0 0.00 0.00 0.00 78 1014.1
20260902021509 84 180 1.0 12.0 0.00 0.00 0.00 78 1014.2
20260902021009 85 180 1.0 12.0 0.00 0.00 0.00 78 1014.0
20260902020509 85 180 1.0 12.0 0.00 0.00 0.00 78 1014.1
20260902020009 85 182 1.0 12.0 0.00 0.00 0.00 78 1014.2
20260902014439 85 181 1.0 12.0 0.00 0.00 0.00 78 1013.9
20260902013939 85 190 1.0 12.0 0.00 0.00 0.00 77 1013.9
20260902013438 85 189 1.0 12.0 0.00 0.00 0.00 77 1013.9
20260902012937 85 188 1.0 12.0 0.00 0.00 0.00 77 1013.7
20260902012436 85 188 1.0 12.0 0.00 0.00 0.00 77 1013.7
20260902011419 86 190 2.0 12.0 0.00 0.00 0.00 77 1013.9
20260902010918 86 195 2.0 12.0 0.00 0.00 0.00 76 1013.6
20260902010417 86 200 2.0 12.0 0.00 0.00 0.00 76 1013.3
20260902005916 86 197 2.0 12.0 0.00 0.00 0.00 76 1013.2
20260902005415 86 195 1.0 12.0 0.00 0.00 0.00 75 1013.4
20260902004915 87 195 1.0 12.0 0.00 0.00 0.00 75 1013.3
20260902004415 87 195 1.0 12.0 0.00 0.00 0.00 74 1013.3
20260902003914 87 195 1.0 12.0 0.00 0.00 0.00 74 1013.4
20260902002341 88 190 1.0 12.0 0.00 0.00 0.00 72 1013.3
20260902001840 88 191 1.0 12.0 0.00 0.00 0.00 71 1013.4
20260902001340 89 195 2.0 12.0 0.00 0.00 0.00 70 1013.4
20260902000839 89 199 2.0 12.0 0.00 0.00 0.00 70 1013.3
20260902000338 89 200 2.0 12.0 0.00 0.00 0.00 69 1013.4
20260901235838 90 198 2.0 12.0 0.00 0.00 0.00 68 1013.4
20260901235338 90 204 2.0 12.0 0.00 0.00 0.00 67 1013.4
20260901234837 91 211 1.0 12.0 0.00 0.00 0.00 67 1013.2
20260901233821 91 204 3.0 12.0 0.00 0.00 0.00 65 1013.2
20260901233320 92 198 4.0 12.0 0.00 0.00 0.00 65 1013.7
20260901232820 92 205 2.0 12.0 0.00 0.00 0.00 64 1011.6
20260901231804 93 194 2.0 12.0 0.00 0.00 0.00 63 1011.6
20260901231304 93 198 2.0 12.0 0.00 0.00 0.00 63 1011.9
20260901230804 93 193 3.0 12.0 0.00 0.00 0.00 62 1012.7
20260901230304 93 181 2.0 12.0 0.00 0.00 0.00 61 1013.2
20260901225804 94 197 3.0 12.0 0.00 0.00 0.00 60 1013.4
20260901225306 94 186 2.0 12.0 0.00 0.00 0.00 59 1013.7
20260901224803 94 180 3.0 12.0 0.00 0.00 0.00 59 1014.1
20260901224302 94 200 3.0 12.0 0.00 0.00 0.00 58 1014.2
20260901223802 95 178 3.0 12.0 0.00 0.00 0.00 58 1014.5
20260901223302 95 193 4.0 12.0 0.00 0.00 0.00 57 1014.0
20260901222802 95 191 5.0 12.0 0.00 0.00 0.00 57 1014.2
20260901222306 95 200 3.0 12.0 0.00 0.00 0.00 56 1014.2
20260901221801 95 211 5.0 12.0 0.00 0.00 0.00 55 1014.1
20260901221301 95 196 4.0 12.0 0.00 0.00 0.00 56 1014.0
20260901220800 95 206 5.0 12.0 0.00 0.00 0.00 55 1013.9
20260901220259 95 192 4.0 12.0 0.00 0.00 0.00 55 1013.8
20260901215758 95 210 5.0 12.0 0.00 0.00 0.00 55 1013.9
20260901215258 96 206 4.0 12.0 0.00 0.00 0.00 54 1013.6
20260901214755 96 214 5.0 12.0 0.00 0.00 0.00 54 1013.7
20260901214254 96 212 5.0 12.0 0.00 0.00 0.00 54 1014.0
20260901213238 96 197 6.0 12.0 0.00 0.00 0.00 54 1014.6
20260901212223 97 215 4.0 12.0 0.00 0.00 0.00 53 1013.9
20260901211722 97 181 5.0 12.0 0.00 0.00 0.00 54 1014.2
20260901211222 97 226 5.0 12.0 0.00 0.00 0.00 53 1013.3
20260901210721 97 204 5.0 12.0 0.00 0.00 0.00 53 1013.3
20260901210220 96 211 5.0 12.0 0.00 0.00 0.00 54 1013.5
20260901205203 96 211 6.0 12.0 0.00 0.00 0.00 53 1013.8
20260901204702 96 204 5.0 12.0 0.00 0.00 0.00 54 1013.6
20260901204201 97 218 7.0 13.0 0.00 0.00 0.00 52 1014.1
20260901203700 97 221 6.0 13.0 0.00 0.00 0.00 51 1013.6
20260901203159 97 207 7.0 13.0 0.00 0.00 0.00 52 1013.7
20260901202658 97 189 4.0 13.0 0.00 0.00 0.00 53 1013.9
20260901202158 96 212 6.0 13.0 0.00 0.00 0.00 52 1013.6
20260901201658 97 205 7.0 13.0 0.00 0.00 0.00 52 1013.7
20260901200642 97 223 7.0 12.0 0.00 0.00 0.00 52 1013.8
20260901200142 97 169 6.0 12.0 0.00 0.00 0.00 52 1013.8
20260901195641 97 192 5.0 12.0 0.00 0.00 0.00 52 1013.7
20260901195140 97 211 6.0 12.0 0.00 0.00 0.00 51 1013.7
20260901194639 97 206 6.0 13.0 0.00 0.00 0.00 51 1014.0
20260901194138 97 196 5.0 13.0 0.00 0.00 0.00 52 1013.7
20260901193121 97 217 6.0 13.0 0.00 0.00 0.00 52 1014.3
20260901192621 97 201 6.0 12.0 0.00 0.00 0.00 50 1014.2
20260901192120 97 224 6.0 14.0 0.00 0.00 0.00 51 1014.1
20260901185517 97 214 7.0 14.0 0.00 0.00 0.00 50 1014.3
20260901184501 97 226 7.0 13.0 0.00 0.00 0.00 51 1014.6
20260901184001 96 219 5.0 13.0 0.00 0.00 0.00 52 1014.5
20260901183501 96 203 6.0 13.0 0.00 0.00 0.00 53 1014.4
20260901183001 97 216 6.0 12.0 0.00 0.00 0.00 52 1014.5
20260901182501 97 218 5.0 12.0 0.00 0.00 0.00 51 1014.6
20260901182001 96 202 6.0 13.0 0.00 0.00 0.00 53 1014.8
20260901181501 96 206 3.0 13.0 0.00 0.00 0.00 53 1014.3
20260901181001 96 210 7.0 13.0 0.00 0.00 0.00 52 1014.7
20260901180501 96 202 6.0 13.0 0.00 0.00 0.00 53 1014.7
20260901180001 96 184 5.0 13.0 0.00 0.00 0.00 54 1014.6
20260901175501 96 198 5.0 13.0 0.00 0.00 0.00 53 1014.7
20260901173928 95 224 6.0 12.0 0.00 0.00 0.00 55 1014.7
20260901173428 95 228 6.0 12.0 0.00 0.00 0.00 55 1014.8
20260901172414 94 218 6.0 13.0 0.00 0.00 0.00 55 1014.8
20260901171913 94 213 6.0 13.0 0.00 0.00 0.00 55 1014.8
20260901171412 94 185 5.0 13.0 0.00 0.00 0.00 56 1015.0
20260901170912 94 190 6.0 12.0 0.00 0.00 0.00 57 1014.7
20260901170412 94 187 5.0 12.0 0.00 0.00 0.00 56 1015.0
20260901165911 93 217 5.0 12.0 0.00 0.00 0.00 58 1014.9
20260901165411 93 193 8.0 12.0 0.00 0.00 0.00 57 1015.0
20260901164911 94 209 5.0 12.0 0.00 0.00 0.00 57 1015.0
20260901164410 94 218 5.0 12.0 0.00 0.00 0.00 56 1015.1
20260901163911 93 201 6.0 12.0 0.00 0.00 0.00 57 1015.3
20260901163410 93 210 5.0 11.0 0.00 0.00 0.00 57 1015.5
20260901162354 92 209 6.0 11.0 0.00 0.00 0.00 61 1015.4
20260901161853 91 209 4.0 11.0 0.00 0.00 0.00 63 1015.4
20260901161352 91 174 5.0 11.0 0.00 0.00 0.00 62 1015.2
20260901160851 91 200 3.0 11.0 0.00 0.00 0.00 64 1015.7
20260901160350 91 204 5.0 12.0 0.00 0.00 0.00 64 1015.4
20260901155849 90 205 4.0 12.0 0.00 0.00 0.00 65 1015.7
20260901155349 90 205 4.0 12.0 0.00 0.00 0.00 66 1015.2
20260901154848 90 187 5.0 12.0 0.00 0.00 0.00 65 1015.2
20260901154346 89 212 3.0 12.0 0.00 0.00 0.00 67 1015.5
20260901153846 89 208 5.0 12.0 0.00 0.00 0.00 68 1015.5
20260901153345 88 210 5.0 12.0 0.00 0.00 0.00 68 1015.4
20260901152844 88 213 4.0 12.0 0.00 0.00 0.00 69 1015.4
20260901152345 88 207 5.0 12.0 0.00 0.00 0.00 69 1015.5
20260901151843 87 217 5.0 12.0 0.00 0.00 0.00 70 1015.4
20260901150827 87 210 5.0 12.0 0.00 0.00 0.00 71 1015.8
20260901150327 86 221 6.0 12.0 0.00 0.00 0.00 71 1015.8
20260901145827 86 206 3.0 12.0 0.00 0.00 0.00 72 1015.6
20260901145326 86 191 3.0 12.0 0.00 0.00 0.00 72 1015.6
20260901144826 85 203 5.0 12.0 0.00 0.00 0.00 73 1015.6
20260901144327 85 212 4.0 12.0 0.00 0.00 0.00 73 1015.7
20260901143825 85 215 5.0 12.0 0.00 0.00 0.00 74 1015.5
20260901143325 84 224 4.0 12.0 0.00 0.00 0.00 74 1015.1
20260901142825 84 226 4.0 12.0 0.00 0.00 0.00 75 1015.6
20260901142324 84 218 4.0 12.0 0.00 0.00 0.00 75 1015.6
20260901141824 83 204 4.0 12.0 0.00 0.00 0.00 76 1015.4
20260901141322 83 219 5.0 12.0 0.00 0.00 0.00 77 1015.3
20260901140822 82 209 5.0 12.0 0.00 0.00 0.00 78 1015.6
20260901140321 81 221 4.0 12.0 0.00 0.00 0.00 79 1015.7
20260901135821 81 195 4.0 12.0 0.00 0.00 0.00 80 1015.6
20260901135322 81 189 4.0 12.0 0.00 0.00 0.00 80 1015.4
20260901134821 80 181 4.0 12.0 0.00 0.00 0.00 80 1015.4
20260901134320 80 183 2.0 12.0 0.00 0.00 0.00 81 1015.5
20260901133820 80 194 3.0 12.0 0.00 0.00 0.00 81 1015.9
20260901133319 80 207 5.0 12.0 0.00 0.00 0.00 81 1015.4
20260901132818 79 196 4.0 12.0 0.00 0.00 0.00 82 1015.6
20260901132318 79 206 3.0 12.0 0.00 0.00 0.00 82 1015.5
20260901131816 79 189 3.0 12.0 0.00 0.00 0.00 83 1016.0
20260901131316 78 196 3.0 12.0 0.00 0.00 0.00 84 1015.8
20260901130817 78 188 3.0 12.0 0.00 0.00 0.00 85 1015.7
20260901130316 77 176 3.0 12.0 0.00 0.00 0.00 85 1015.6
20260901125816 77 189 3.0 12.0 0.00 0.00 0.00 86 1016.1
20260901125316 77 170 3.0 12.0 0.00 0.00 0.00 86 1015.7
20260901124816 76 181 2.0 12.0 0.00 0.00 0.00 87 1015.8
20260901124315 76 179 3.0 12.0 0.00 0.00 0.00 87 1015.8
20260901123815 76 181 3.0 12.0 0.00 0.00 0.00 88 1015.6
20260901123315 75 172 3.0 12.0 0.00 0.00 0.00 88 1015.6
20260901122814 75 184 4.0 12.0 0.00 0.00 0.00 89 1015.4
20260901122312 75 191 3.0 12.0 0.00 0.00 0.00 89 1015.0
20260901121812 75 170 1.0 12.0 0.00 0.00 0.00 89 1015.6
20260901121311 75 177 3.0 12.0 0.00 0.00 0.00 89 1015.3
20260901120811 75 183 1.0 12.0 0.00 0.00 0.00 89 1015.1
20260901120311 74 172 2.0 12.0 0.00 0.00 0.00 89 1015.0
20260901115811 74 174 3.0 12.0 0.00 0.00 0.00 89 1015.1
20260901115311 74 170 1.0 12.0 0.00 0.00 0.00 89 1015.0
20260901114811 74 171 1.0 12.0 0.00 0.00 0.00 89 1014.8
20260901114311 74 167 2.0 12.0 0.00 0.00 0.00 89 1015.4
20260901113811 74 165 1.0 12.0 0.00 0.00 0.00 90 1014.9
20260901112756 74 164 0.0 12.0 0.00 0.00 0.00 89 1014.8
20260901112256 74 164 1.0 12.0 0.00 0.00 0.00 89 1014.7
20260901111756 74 179 1.0 12.0 0.00 0.00 0.00 89 1014.8
20260901110223 74 186 1.0 12.0 0.00 0.00 0.00 89 1014.8
20260901105723 74 180 1.0 12.0 0.00 0.00 0.00 89 1015.1
20260901104706 74 182 1.0 12.0 0.00 0.00 0.00 89 1014.7
20260901104206 74 176 1.0 12.0 0.00 0.00 0.00 89 1014.7
20260901103705 74 172 1.0 12.0 0.00 0.00 0.00 89 1014.7
20260901103205 74 172 1.0 12.0 0.00 0.00 0.00 90 1014.6
20260901102704 74 179 1.0 12.0 0.00 0.00 0.00 89 1014.6
20260901102203 74 187 1.0 12.0 0.00 0.00 0.00 89 1014.6
20260901101147 75 187 1.0 12.0 0.00 0.00 0.00 89 1014.5
20260901100646 75 188 1.0 12.0 0.00 0.00 0.00 89 1014.5
20260901100145 75 190 1.0 12.0 0.00 0.00 0.00 89 1014.5
20260901095644 75 190 1.0 12.0 0.00 0.00 0.00 89 1014.6
20260901095144 75 189 1.0 12.0 0.00 0.00 0.00 89 1014.5
20260901094644 75 196 0.0 12.0 0.00 0.00 0.00 89 1014.4
20260901094143 75 196 1.0 12.0 0.00 0.00 0.00 89 1014.7